Tracking 28091 objects as of 30-Sep-2023
HD Live streaming from Space Station
objects crossing your sky now

DMSP 5D-3 F19 DEB

Track DMSP 5D-3 F19 DEB now!
10-day predictions


NORAD ID: 39632
Int'l Code: 2014-015C
Perigee: 829.0 km
Apogee: 837.6 km
Inclination: 98.7 °
Period: 101.4 minutes
Semi major axis: 7204 km
RCS: Unknown
Launch date: April 3, 2014
Source: United States (US)
Launch site: AIR FORCE WESTERN TEST RANGE (AFWTR)

Note: This is SATELLITE DEBRIS
Your satellite tracking list
Your tracking list is empty




NASA's NSSDC Master Catalog

Two Line Element Set (TLE):
1 39632U 14015C   23272.63063223  .00002485  00000-0  11935-2 0  9995
2 39632  98.6881 282.9589 0005953 113.8742 246.3058 14.19768298490721
Source of the keplerian elements: AFSPC